[[{"header":{"parameterUnit":"m.s-1","parameterCategory":1,"la1":30.2991,"la2":30.254,"lo1":-89.0895,"lo2":-89.0444,"dy":0.0017,"dx":0.0017,"nx":28,"ny":28,"refTime":"2025-11-23T03:00:00:Z","depth":0,"parameterNumber":2,"parameterNumberName":"U-component_of_WINDS"},"data":[0,0,0,0,0,0,0,0,0,0,0,0,0,0,0,0,0,0,0,0,0,0,0,0,0,0,0,0,0,0,0,0,0,0,0,0,0,0,0,0,0,0,0,0,0,0,0,0,0,0,0,0,0,0,0,0,0,0,-3.9773,-3.9772,0,-3.9765,-3.9765,-3.9765,-3.9707,-3.9706,-3.9704,-3.9703,-3.9696,-3.9697,-3.9698,0,0,0,0,0,0,0,0,0,0,0,0,0,-3.9736,-3.9737,-3.9773,-3.9772,-3.9772,-3.9765,-3.9765,-3.9765,-3.9707,-3.9706,-3.9704,-3.9702,-3.9695,-3.9697,-3.9698,0,0,0,0,0,0,0,0,0,0,0,0,0,-3.9743,-3.9738,-3.9773,-3.9743,-3.974,-3.9765,-3.9765,-3.9765,-3.9708,-3.9706,-3.9703,-3.9701,-3.9695,-3.9696,-3.9698,-3.9752,0,0,-3.9703,-3.9704,0,0,0,0,0,0,0,0,-3.9743,-3.9744,-3.9747,-3.9745,-3.9742,-3.9735,-3.975,-3.9761,-3.9708,-3.972,-3.9703,-3.97,-3.971,-3.9711,-3.9714,-3.9751,-3.9751,-3.9703,-3.9704,-3.9705,-3.9706,0,0,0,0,0,0,0,-3.9742,-3.9744,-3.977,-3.9747,-3.9744,-3.973,-3.9728,-3.9752,-3.9727,-3.9719,-3.9715,-3.9715,-3.9708,-3.9713,-3.9713,-3.9751,-3.9703,-3.9705,-3.9706,-3.9707,-3.9831,-3.9833,0,0,0,0,0,0,-3.9746,-3.9744,-3.977,-3.9769,-3.9737,-3.9732,-3.9731,-3.9739,-3.9727,-3.9723,-3.9716,-3.9712,-3.9711,-3.9712,-3.9713,-3.9774,-3.9705,-3.9707,-3.9708,-3.9829,-3.9832,-3.9834,0,0,0,0,0,0,-3.9746,-3.9749,-3.977,-3.9756,-3.9757,-3.9735,-3.9745,-3.974,-3.9744,-3.9725,-3.972,-3.9725,-3.9709,-3.9711,-3.9742,-3.9773,-3.9708,-3.9709,-3.9826,-3.983,-3.9833,-3.9897,0,0,0,0,0,0,-3.9745,-3.9749,-3.9769,-3.9757,-3.9758,-3.98,-3.9747,-3.9742,-3.9747,-3.9741,-3.9732,-3.9728,-3.9707,-3.974,-3.9744,-3.9774,-3.971,-3.9823,-3.9828,-3.9832,-3.9892,-3.9902,-3.9911,0,0,0,0,0,-3.9744,-3.9787,-3.977,-3.9774,-3.9783,-3.9801,-3.9802,-3.9778,-3.975,-3.977,-3.9758,-3.9728,-3.977,-3.9744,-3.9748,-3.9779,-3.9821,-3.9827,-3.9832,-3.9887,-3.99,-3.991,0,0,0,0,0,0,-3.9803,-3.9785,-3.9766,-3.9807,-3.9806,-3.9792,-3.9816,-3.9792,-3.9799,-3.9793,-3.9762,-3.976,-3.9797,-3.9791,-3.9763,-3.983,-3.979,-3.9797,-3.9831,-3.9843,-3.9852,-3.9852,-3.9712,0,0,0,0,0,-3.9821,-3.9838,-3.9821,-3.9859,-3.986,-3.9838,-3.9845,-3.9826,-3.9824,-3.9824,-3.9814,-3.9813,-3.9826,-3.9834,-3.9845,-3.9892,-3.9888,-3.9915,-3.9924,-3.9932,-3.9937,-3.9961,-3.9972,-3.9851,-3.9851,-3.9851,0,0,-3.9858,-3.985,-3.9863,-3.9871,-3.9868,-3.9886,-3.9838,-3.9859,-3.9872,-3.9827,-3.9856,-3.9849,-3.9846,-3.9885,-3.9902,-3.9882,-3.997,-3.9939,-3.9945,-3.9946,-3.9967,-3.9978,-3.9989,-3.9855,-3.9854,-3.9853,0,0,-3.9934,-3.9931,-3.9961,-3.996,-3.9956,-3.9942,-3.995,-3.9939,-3.9933,-3.9961,-3.9928,-3.9943,-3.9966,-3.9965,-3.9967,-4.0045,-4.0018,-4.005,-4.0098,-4.0121,-4.013,-4.0139,-4.0165,-4.0175,-4.0055,-4.0055,-4.0055,0,-3.998,-4.0006,-3.998,-4.0003,-4.0007,-3.9968,-3.9999,-3.9999,-3.9999,-4.0003,-3.9981,-4.0008,-4.0004,-4.0042,-4.0061,-4.0065,-4.0072,-4.0049,-4.0131,-4.0139,-4.0147,-4.0171,-4.0181,-4.0059,-4.0059,-4.0058,-4.0058,0,-4.0062,-4.0081,-4.0106,-4.0107,-4.0114,-4.0141,-4.012,-4.013,-4.0112,-4.01,-4.013,-4.0123,-4.0131,-4.014,-4.0122,-4.0175,-4.0163,-4.0137,-4.0096,-4.0162,-4.0185,-4.0194,-4.0064,-4.0063,-4.0062,-4.0061,0,0,-4.0173,-4.0161,-4.017,-4.017,-4.0164,-4.0178,-4.0204,-4.0212,-4.0221,-4.0224,-4.0243,-4.0264,-4.024,-4.0243,-4.0225,-4.0246,-4.0306,-4.0217,-4.0216,-4.0232,-4.0364,-4.0382,-4.0393,-4.0289,-4.0291,-4.0292,-4.0363,0,-4.0245,-4.0286,-4.0265,-4.031,-4.0326,-4.029,-4.0312,-4.0311,-4.0301,-4.0314,-4.0303,-4.0317,-4.0285,-4.0287,-4.0306,-4.0295,-4.0332,-4.029,-4.0306,-4.0307,-4.0306,-4.0405,-4.0424,-4.0491,-4.0372,-4.0374,-4.0375,0,-4.0333,-4.0339,-4.0386,-4.0377,-4.0383,-4.0403,-4.0409,-4.0422,-4.042,-4.0411,-4.0416,-4.0393,-4.0417,-4.0379,-4.0412,-4.0384,-4.039,-4.0386,-4.0388,-4.0386,-4.0343,-4.0404,-4.0512,-4.0521,-4.0389,-4.0387,-4.0386,0,-4.0407,-4.0427,-4.0457,-4.0459,-4.045,-4.0465,-4.0462,-4.0458,-4.0465,-4.047,-4.0474,-4.0483,-4.0487,-4.0495,-4.0475,-4.0449,-4.051,-4.047,-4.0502,-4.0503,-4.0515,-4.0514,-4.0622,-4.0523,-4.0523,-4.0522,-4.0522,0,-4.0488,-4.0517,-4.049,-4.0508,-4.054,-4.0516,-4.0548,-4.0542,-4.0539,-4.0555,-4.0526,-4.0542,-4.0516,-4.053,-4.0515,-4.0543,-4.0546,-4.0539,-4.0534,-4.054,-4.0541,-4.0542,-4.0536,-4.0525,-4.0524,-4.0524,-4.0523,0,-4.0574,-4.0558,-4.0588,-4.0578,-4.0576,-4.06,-4.0591,-4.0607,-4.0596,-4.0617,-4.0621,-4.0604,-4.0618,-4.06,-4.0613,-4.0602,-4.0641,-4.0631,-4.0641,-4.0637,-4.067,-4.0666,-4.0781,-4.0794,-4.0689,-4.069,-4.0691,0,-4.0626,-4.0647,-4.064,-4.0649,-4.0647,-4.0662,-4.0669,-4.0647,-4.0655,-4.0655,-4.0671,-4.0684,-4.0692,-4.0717,-4.0705,-4.0715,-4.0703,-4.0743,-4.0704,-4.0709,-4.0701,-4.0699,-4.0701,-4.075,-4.0751,-4.0752,-4.0753,0,-4.0718,-4.0709,-4.072,-4.0728,-4.0737,-4.0742,-4.0745,-4.0754,-4.0731,-4.0742,-4.0756,-4.0763,-4.0776,-4.0788,-4.0795,-4.0792,-4.0768,-4.0766,-4.0773,-4.0778,-4.0783,-4.0779,-4.0661,-4.0762,-4.0761,-4.0761,-4.076,-4.076,-4.0787,-4.0805,-4.0802,-4.0815,-4.0815,-4.0819,-4.0834,-4.0825,-4.0837,-4.0846,-4.0832,-4.085,-4.0849,-4.0855,-4.0855,-4.0869,-4.0852,-4.0863,-4.0866,-4.0868,-4.0872,-4.0783,-4.0871,-4.087,-4.087,-4.087,-4.087,0,-4.0876,-4.0873,-4.0886,-4.0891,-4.0901,-4.088,-4.0882,-4.0892,-4.0908,-4.0909,-4.0918,-4.0935,-4.0947,-4.0937,-4.0947,-4.096,-4.0949,-4.0963,-4.096,-4.096,-4.0888,-4.088,-4.0971,-4.0971,-4.0971,-4.0971,-4.0971,-4.0971,-4.0924,-4.0952,-4.0943,-4.0971,-4.0967,-4.0985,-4.0988,-4.0991,-4.0992,-4.1012,-4.1022,-4.1016,-4.1012,-4.1022,-4.1032,-4.1028,-4.1032,-4.105,-4.1043,-4.0975,-4.0965,-4.0955,-4.0947,-4.1051,-4.1051,-4.1113,-4.1113,-4.1114]},{"header":{"parameterUnit":"m.s-1","parameterCategory":1,"la1":30.2991,"la2":30.254,"lo1":-89.0895,"lo2":-89.0444,"dy":0.0017,"dx":0.0017,"nx":28,"ny":28,"refTime":"2025-11-23T03:00:00:Z","depth":0,"parameterNumber":3,"parameterNumberName":"V-component_of_WINDS"},"data":[0,0,0,0,0,0,0,0,0,0,0,0,0,0,0,0,0,0,0,0,0,0,0,0,0,0,0,0,0,0,0,0,0,0,0,0,0,0,0,0,0,0,0,0,0,0,0,0,0,0,0,0,0,0,0,0,0,0,2.092,2.0922,0,2.1113,2.1115,2.1117,2.1205,2.1205,2.1205,2.1205,2.1403,2.1409,2.1414,0,0,0,0,0,0,0,0,0,0,0,0,0,2.0628,2.0633,2.0919,2.0922,2.0924,2.1113,2.1115,2.1118,2.1205,2.1205,2.1205,2.1204,2.1402,2.1408,2.1415,0,0,0,0,0,0,0,0,0,0,0,0,0,2.0781,2.0634,2.0919,2.099,2.0999,2.1112,2.1115,2.1119,2.1205,2.1205,2.1205,2.1204,2.1399,2.1407,2.1415,2.1472,0,0,2.1441,2.1444,0,0,0,0,0,0,0,0,2.0772,2.0792,2.0978,2.0986,2.0995,2.1135,2.1085,2.1237,2.1205,2.1127,2.1205,2.1204,2.1314,2.1329,2.1366,2.1482,2.149,2.1441,2.1446,2.145,2.1452,0,0,0,0,0,0,0,2.0761,2.0784,2.0996,2.098,2.0991,2.1014,2.1035,2.1115,2.122,2.1134,2.1141,2.1162,2.1319,2.1358,2.1372,2.1493,2.1441,2.1448,2.1453,2.1457,2.1667,2.1668,0,0,0,0,0,0,2.0739,2.0774,2.099,2.1002,2.0881,2.1019,2.1043,2.109,2.1219,2.1239,2.1162,2.1166,2.1344,2.1362,2.1379,2.1456,2.145,2.1457,2.1462,2.1666,2.1667,2.1668,0,0,0,0,0,0,2.0732,2.0757,2.0982,2.089,2.092,2.1024,2.1077,2.1094,2.1134,2.1241,2.126,2.1183,2.1345,2.1367,2.1449,2.1464,2.1461,2.1469,2.1666,2.1667,2.1667,2.1609,0,0,0,0,0,0,2.0724,2.0754,2.0777,2.089,2.0925,2.1048,2.1078,2.1098,2.1147,2.1154,2.1265,2.1284,2.1346,2.1436,2.1457,2.1475,2.1475,2.1665,2.1666,2.1667,2.161,2.1608,2.1606,0,0,0,0,0,2.0713,2.0752,2.0777,2.0803,2.0955,2.1049,2.1069,2.114,2.1148,2.1172,2.1241,2.128,2.1458,2.1444,2.1468,2.1489,2.1664,2.1666,2.1667,2.1611,2.1608,2.1606,0,0,0,0,0,0,2.0638,2.0768,2.0798,2.0874,2.095,2.1063,2.1095,2.1135,2.1209,2.1212,2.1297,2.1322,2.1396,2.1451,2.1432,2.1552,2.1565,2.1571,2.1514,2.1512,2.151,2.1496,2.1482,0,0,0,0,0,2.063,2.0695,2.0806,2.0863,2.0899,2.099,2.1034,2.1082,2.1164,2.1196,2.1272,2.135,2.1424,2.1471,2.1544,2.1618,2.1644,2.1644,2.1642,2.164,2.1645,2.169,2.1691,2.1673,2.1673,2.1673,0,0,2.0615,2.0694,2.073,2.085,2.0914,2.098,2.1017,2.1085,2.1135,2.1207,2.1289,2.1347,2.144,2.1518,2.1556,2.1565,2.1656,2.1642,2.1639,2.1646,2.1691,2.1693,2.1694,2.1674,2.1673,2.1673,0,0,2.0622,2.0688,2.0744,2.0807,2.0904,2.0965,2.0978,2.1086,2.1127,2.1211,2.1266,2.1328,2.1453,2.1517,2.1566,2.1599,2.1638,2.162,2.161,2.1653,2.1654,2.1656,2.1669,2.1673,2.1624,2.1624,2.1624,0,2.0592,2.0693,2.0767,2.0833,2.0885,2.0953,2.1011,2.1069,2.1184,2.1219,2.1228,2.1388,2.1455,2.155,2.1558,2.1594,2.1614,2.1609,2.1648,2.165,2.1653,2.1667,2.1672,2.1622,2.1622,2.1622,2.1622,0,2.0652,2.0721,2.0755,2.0865,2.0921,2.0982,2.1066,2.1114,2.1157,2.1217,2.1302,2.1385,2.1478,2.1504,2.1546,2.1605,2.1609,2.1631,2.1647,2.1651,2.1666,2.1671,2.1618,2.1619,2.162,2.162,0,0,2.0617,2.0768,2.078,2.0831,2.0943,2.0999,2.1064,2.1155,2.1195,2.1272,2.133,2.1434,2.1457,2.1512,2.1563,2.16,2.1623,2.1619,2.1623,2.1619,2.1696,2.1679,2.1684,2.1649,2.165,2.1652,2.1689,0,2.0641,2.076,2.0829,2.092,2.0987,2.1053,2.1109,2.1185,2.1242,2.1308,2.1372,2.1446,2.1468,2.1503,2.1542,2.1612,2.164,2.161,2.1705,2.1708,2.1682,2.1691,2.1674,2.1705,2.1695,2.1696,2.1696,0,2.0684,2.0761,2.0859,2.0965,2.0996,2.1045,2.1135,2.1196,2.1283,2.1323,2.1386,2.1437,2.1509,2.1517,2.1619,2.1597,2.164,2.168,2.1683,2.1696,2.1703,2.1707,2.1716,2.1722,2.1706,2.1705,2.1704,0,2.0652,2.0779,2.0855,2.0897,2.1022,2.1056,2.111,2.1197,2.1248,2.1326,2.136,2.1445,2.1492,2.1558,2.1631,2.163,2.1726,2.174,2.1763,2.1761,2.1781,2.1779,2.18,2.1805,2.1805,2.1805,2.1805,0,2.0672,2.073,2.0842,2.0889,2.0956,2.1035,2.11,2.1159,2.1236,2.1296,2.1358,2.1413,2.1505,2.1572,2.163,2.1707,2.1727,2.1762,2.1777,2.1758,2.1754,2.1789,2.1789,2.1806,2.1806,2.1806,2.1806,0,2.0647,2.0725,2.0812,2.0924,2.0953,2.0998,2.1094,2.1142,2.1203,2.1279,2.1301,2.1397,2.1479,2.1559,2.1668,2.1707,2.1784,2.1803,2.1755,2.1764,2.1783,2.1781,2.1828,2.1839,2.1834,2.1834,2.1834,0,2.0656,2.0702,2.0819,2.0863,2.0916,2.0987,2.1039,2.1119,2.1171,2.1275,2.1311,2.1398,2.1472,2.16,2.1681,2.1765,2.1788,2.1799,2.1801,2.1781,2.1791,2.1788,2.1794,2.1797,2.1797,2.1796,2.1796,0,2.0663,2.07,2.0773,2.086,2.092,2.0992,2.1067,2.11,2.1195,2.125,2.1335,2.1392,2.1505,2.1591,2.1686,2.1742,2.1786,2.1795,2.1805,2.1787,2.1758,2.1776,2.1752,2.1794,2.1794,2.1794,2.1794,2.1794,2.0657,2.0702,2.0792,2.0872,2.0936,2.1004,2.1056,2.1124,2.1196,2.1294,2.1337,2.1423,2.1511,2.1643,2.1699,2.1768,2.1778,2.1792,2.1796,2.1799,2.1796,2.1745,2.1785,2.1785,2.1785,2.1786,2.1786,0,2.067,2.0731,2.0804,2.0906,2.0969,2.1004,2.1089,2.1139,2.1214,2.1293,2.1364,2.1463,2.1547,2.1634,2.1723,2.1762,2.1785,2.1783,2.1782,2.1795,2.178,2.1764,2.1764,2.1764,2.1764,2.1764,2.1764,2.1764,2.0684,2.0763,2.081,2.0921,2.0983,2.1068,2.1113,2.1177,2.124,2.1348,2.1418,2.1474,2.1557,2.1653,2.1732,2.1755,2.1786,2.178,2.1809,2.1794,2.1795,2.1797,2.1782,2.1785,2.1785,2.1818,2.1818,2.1819]}]]